Wetbulb
59.10 58.35 57.85 57.62 58.28 58.67 58.62 58.62 59.22 59.82 60.08 60.23 60.21 60.02 59.85 59.71 59.26 54.75 48.56 54.97 57.41 68.78 66.94 63.36 60.36 58.09 56.90 57.12 61.22 60.28 52.65 48.45 50.06 52.48 54.34 59.75 59.03 63.10 64.03 60.62 62.42 63.03 61.89 63.24 65.66
59.00 58.24 57.78 57.05 57.48 57.84 58.27 58.41 58.68 59.37 60.03 60.01 60.11 59.86 59.53 59.31 54.25 51.94 60.24 66.16 68.88 69.56 59.82 56.91 56.41 56.97 53.16 57.28 57.99 55.67 50.22 51.88 55.95 55.83 55.14 58.97 60.06 61.24 60.21 59.99 59.03 58.64 62.88 65.08 65.22
58.65 58.07 57.90 56.97 56.78 56.94 57.58 58.25 58.41 58.86 59.60 59.64 59.58 59.51 59.37 58.15 52.69 52.89 66.80 68.04 69.63 68.51 60.12 59.72 57.92 56.78 53.01 56.69 55.73 55.79 51.42 57.47 58.26 59.90 59.61 58.56 59.56 62.16 59.13 56.91 58.28 56.93 57.70 62.66 57.40
58.27 57.55 56.97 57.61 56.14 55.72 56.83 58.03 58.23 58.51 58.76 59.01 59.00 59.28 59.43 55.82 45.95 56.57 71.20 70.92 70.22 60.92 58.37 56.37 55.79 53.40 54.41 54.91 58.23 55.72 58.52 57.58 59.48 61.79 60.44 58.35 60.94 59.74 60.55 59.91 61.34 57.62 58.17 58.16 55.46
57.86 57.06 56.36 56.05 56.01 55.68 56.26 57.74 57.97 57.93 58.18 58.31 58.86 59.46 55.80 52.38 53.05 65.87 71.77 71.03 64.25 59.42 57.34 56.58 54.60 55.78 53.36 55.83 56.66 55.85 57.07 58.11 60.05 59.82 60.27 61.91 59.84 59.50 59.28 59.13 57.59 56.74 55.88 54.92 54.80
57.65 56.96 55.87 55.64 55.83 55.43 55.59 57.38 57.14 57.37 57.62 58.11 58.96 59.58 55.24 46.52 57.37 65.97 64.33 61.00 60.12 57.66 56.27 56.37 57.54 58.74 56.46 56.47 54.26 56.81 57.78 58.06 57.96 58.82 60.88 59.07 58.60 59.98 60.31 57.58 56.40 55.60 54.44 55.02 55.26
57.44 55.88 55.23 55.44 55.46 55.31 55.25 56.84 56.52 56.89 57.53 58.65 59.59 59.48 54.80 52.05 59.11 62.07 60.92 57.58 59.11 58.27 54.92 57.10 57.27 59.41 56.64 54.93 58.30 56.59 53.89 55.43 55.49 57.12 59.01 60.28 56.42 57.48 60.53 57.88 56.32 55.70 55.15 55.17 55.37
57.17 55.33 55.21 55.11 55.25 55.27 55.76 57.00 56.68 56.93 58.59 60.46 60.03 56.89 50.95 56.54 58.91 57.78 57.81 56.22 57.60 58.52 56.85 59.49 61.36 58.49 55.75 58.08 55.59 52.37 52.08 47.38 53.34 56.00 59.92 58.34 50.60 58.24 59.84 58.26 55.71 55.53 55.51 55.07 55.01
56.31 55.09 54.62 54.83 55.07 55.27 55.69 56.16 56.62 57.51 59.41 60.46 54.02 53.38 49.46 60.45 56.90 57.93 58.69 56.46 57.40 56.88 57.08 62.91 60.53 56.20 54.95 51.08 47.49 48.77 43.77 48.15 52.24 57.35 57.08 56.14 52.69 58.68 59.67 58.51 56.67 55.56 55.49 56.31 55.30
56.25 55.31 54.26 54.70 54.66 54.52 54.53 54.97 57.64 57.11 58.55 59.74 59.52 50.27 51.18 53.07 56.76 59.48 59.07 59.37 57.07 55.42 53.92 54.58 54.09 50.25 49.31 46.35 42.09 44.59 46.86 48.44 49.72 53.85 55.13 53.64 54.42 57.26 58.73 58.27 57.11 56.24 55.43 55.95 55.83
56.38 54.87 54.13 54.27 54.48 53.63 50.59 50.98 50.48 50.27 54.37 50.88 51.95 50.26 52.70 54.84 57.05 56.73 58.83 57.75 56.33 53.50 49.67 50.45 46.86 44.97 48.63 51.35 49.99 50.97 50.15 48.33 50.31 54.39 52.07 52.18 54.71 56.34 57.83 57.49 56.72 56.39 56.52 56.87 56.96
55.88 54.50 54.30 54.30 54.25 53.24 48.97 48.26 51.40 52.70 48.19 54.88 56.49 55.75 57.58 56.01 53.99 54.80 58.20 53.52 51.81 48.73 50.79 47.36 43.78 49.45 50.58 51.26 52.24 51.90 50.39 48.88 51.41 54.23 52.59 52.82 53.79 56.73 57.68 57.16 57.39 56.89 57.28 56.97 57.33
55.41 54.48 54.21 54.11 53.64 49.48 47.67 51.04 53.45 51.91 47.09 51.49 55.58 54.36 53.95 56.98 53.61 53.52 56.03 53.64 51.65 48.42 47.95 45.99 49.25 51.61 50.12 51.14 50.81 50.16 48.93 48.89 48.61 53.84 54.93 53.02 51.01 52.78 56.49 56.81 57.68 59.25 59.14 58.03 57.39
54.83 54.28 54.17 53.51 50.23 50.10 50.31 54.47 53.42 52.00 42.18 47.16 51.35 53.31 54.10 54.56 52.42 56.65 56.65 54.57 50.18 48.89 48.15 47.36 50.06 49.21 46.86 50.68 50.77 45.58 51.84 51.99 50.29 46.85 42.26 51.14 40.86 50.34 52.00 52.73 55.71 57.05 57.39 57.65 57.70
54.63 54.52 53.85 52.79 47.72 47.29 52.47 51.11 51.49 50.84 34.90 49.17 50.01 54.46 52.57 51.59 51.94 53.69 56.61 54.13 51.17 50.44 48.44 47.33 47.20 47.18 49.15 50.94 52.30 48.87 53.42 49.97 49.54 44.07 42.06 45.97 42.33 44.63 49.50 49.04 51.67 53.36 55.18 54.77 55.46
54.22 53.83 53.25 50.91 48.66 51.51 54.16 51.82 51.79 42.46 36.20 47.68 52.72 50.52 49.81 49.92 51.47 52.69 53.84 55.29 53.70 50.03 48.91 48.46 49.82 49.03 50.65 53.96 53.46 54.63 51.15 47.55 43.27 39.88 34.98 41.13 42.99 41.38 44.78 48.85 50.95 49.82 52.74 53.16 53.67
54.12 53.01 51.05 53.51 47.24 52.46 50.89 52.14 43.66 36.82 47.49 49.47 50.59 52.39 50.73 49.39 49.74 50.68 49.61 48.57 46.23 41.98 42.17 46.89 47.31 50.73 55.54 51.33 51.99 50.07 43.24 38.01 36.57 35.72 33.39 45.13 42.26 42.46 48.69 52.27 50.68 49.42 50.81 51.05 53.22
52.80 51.48 49.95 53.19 51.20 51.64 51.88 47.58 36.98 45.98 48.09 53.32 53.31 52.70 50.83 51.03 50.06 50.03 47.97 47.09 52.30 46.03 43.26 41.92 42.21 51.92 54.53 51.16 49.30 47.65 44.49 37.91 31.61 32.10 34.99 44.81 39.92 43.14 51.12 52.63 51.58 51.07 49.89 50.13 51.61
50.99 48.18 47.89 50.63 52.12 50.57 49.54 40.80 41.49 47.15 52.97 52.47 52.11 50.00 50.02 53.18 52.22 51.70 50.25 50.32 51.96 50.81 45.44 44.62 46.11 53.78 55.18 54.68 53.32 49.10 43.52 45.20 38.15 36.40 33.72 38.99 43.41 48.12 50.89 51.15 51.92 49.19 48.95 49.03 48.97
50.06 49.95 49.18 53.15 53.27 52.11 46.04 41.80 45.87 54.33 55.45 53.78 48.33 51.11 47.47 49.53 49.61 49.52 49.33 53.89 53.15 54.79 52.79 49.96 44.04 53.32 53.29 54.33 52.10 49.04 48.67 41.05 38.24 32.99 30.32 37.49 40.49 40.66 45.68 48.41 49.83 46.69 47.18 47.62 46.76
51.75 48.48 51.36 51.96 52.92 49.00 42.26 43.32 49.81 56.50 57.19 53.59 50.39 49.93 50.63 49.84 50.72 49.59 48.78 53.19 54.82 55.05 53.69 48.99 46.65 48.12 50.22 46.17 45.25 45.08 42.60 41.57 40.03 38.62 33.15 31.35 36.10 46.08 46.73 48.81 46.65 46.22 47.11 47.47 45.24
52.17 47.15 55.04 52.48 46.56 43.18 43.39 47.82 50.86 55.39 56.99 57.09 55.22 53.99 50.86 51.21 50.34 49.48 50.10 51.77 56.46 56.12 51.18 49.97 45.02 42.30 45.46 48.61 50.78 47.17 43.80 41.89 37.74 35.57 35.31 34.36 35.64 46.49 46.93 47.33 47.15 46.78 47.70 47.99 44.46
50.34 50.33 56.76 52.50 43.23 42.78 45.68 49.81 51.25 54.23 54.83 55.76 55.05 54.28 54.30 50.42 46.96 50.72 53.07 56.07 56.01 54.47 49.06 48.90 42.56 38.71 41.65 42.10 47.26 46.85 46.78 43.04 40.52 38.70 36.14 34.39 36.17 47.33 46.67 46.06 46.84 46.88 47.62 47.78 46.39
51.03 50.88 55.31 48.66 46.44 44.43 43.05 45.44 47.94 55.99 55.82 55.93 55.36 54.98 51.88 49.89 51.46 49.85 52.17 56.87 57.78 55.62 56.99 53.95 45.96 42.60 39.12 41.07 43.36 44.24 46.15 44.37 40.37 34.57 35.43 37.76 39.37 43.94 45.47 45.33 45.93 45.56 45.85 46.08 43.55
52.92 50.60 55.12 49.94 50.44 47.20 45.08 49.00 50.09 51.37 55.18 55.12 52.52 53.25 50.87 47.81 50.23 50.13 54.05 54.75 55.83 56.53 53.87 48.19 42.25 44.92 46.55 48.52 48.74 47.82 46.41 44.57 40.23 39.06 36.63 38.77 42.85 44.45 46.33 46.36 47.22 48.45 45.70 43.25 43.12
55.18 55.86 57.38 53.05 52.28 51.25 49.59 49.20 51.55 52.40 53.01 52.31 51.20 54.03 53.92 50.22 51.03 48.13 51.82 50.13 50.35 52.08 49.95 48.51 42.80 45.62 44.83 48.22 49.04 45.32 47.88 45.01 45.40 45.91 45.07 45.72 44.32 48.63 48.71 47.40 46.71 46.93 43.24 43.23 45.68
55.65 59.51 56.63 50.39 50.11 49.49 50.86 52.54 53.65 54.27 54.93 56.70 54.92 53.94 52.19 53.65 53.96 52.28 52.87 52.48 51.63 50.45 48.86 47.80 45.26 43.07 40.56 46.50 46.44 40.79 46.08 46.20 45.97 47.50 46.18 41.13 44.30 44.78 42.75 43.96 42.48 41.28 43.83 45.80 46.71
MSLP
1016.17 1015.94 1015.69 1015.53 1015.28 1015.09 1014.93 1014.71 1014.46 1014.28 1014.18 1014.06 1013.90 1013.72 1013.54 1013.40 1013.19 1013.22 1012.18 1009.75 1009.83 1010.31 1010.56 1011.48 1011.55 1011.65 1011.62 1011.61 1011.87 1012.63 1014.12 1014.91 1014.48 1014.10 1013.98 1013.93 1014.36 1015.17 1015.44 1015.96 1016.31 1016.47 1016.81 1017.05 1018.03
1016.12 1015.94 1015.69 1015.50 1015.24 1015.08 1014.90 1014.64 1014.36 1014.16 1013.97 1013.87 1013.75 1013.65 1013.45 1013.37 1013.05 1012.09 1009.21 1009.19 1009.75 1010.26 1010.63 1011.05 1011.48 1011.47 1011.84 1011.82 1012.33 1012.87 1014.18 1014.41 1013.97 1013.64 1013.58 1013.84 1014.25 1014.96 1015.85 1016.45 1016.93 1017.14 1017.07 1017.27 1018.31
1016.07 1015.84 1015.65 1015.46 1015.29 1015.01 1014.74 1014.45 1014.14 1013.95 1013.82 1013.73 1013.67 1013.56 1013.46 1013.41 1012.57 1009.77 1008.17 1009.06 1010.01 1010.35 1010.27 1010.51 1010.65 1010.98 1011.60 1011.89 1012.51 1013.21 1013.67 1014.11 1013.69 1013.21 1013.14 1013.82 1014.55 1014.97 1015.77 1016.49 1016.52 1017.12 1017.57 1018.03 1018.70
1016.01 1015.82 1015.58 1015.36 1015.20 1015.07 1014.82 1014.48 1014.18 1013.92 1013.76 1013.64 1013.56 1013.49 1013.43 1013.25 1011.31 1008.47 1008.29 1008.97 1009.94 1010.31 1010.04 1010.24 1010.37 1011.07 1011.75 1012.27 1012.46 1013.11 1013.41 1013.32 1013.12 1012.73 1013.20 1013.85 1014.47 1015.22 1015.76 1015.95 1016.17 1017.36 1017.99 1018.60 1019.31
1015.92 1015.74 1015.49 1015.29 1015.07 1014.85 1014.62 1014.30 1014.00 1013.72 1013.54 1013.51 1013.46 1013.39 1013.35 1012.30 1009.88 1008.49 1008.66 1009.21 1010.12 1010.51 1009.97 1009.74 1010.15 1010.82 1011.62 1012.16 1012.52 1013.03 1013.19 1013.07 1013.00 1013.03 1013.30 1013.75 1014.84 1015.59 1016.56 1016.72 1017.13 1018.21 1018.81 1019.34 1019.82
1015.85 1015.61 1015.39 1015.14 1014.90 1014.70 1014.46 1014.10 1013.79 1013.53 1013.34 1013.29 1013.22 1013.21 1012.77 1010.72 1008.12 1008.41 1008.79 1009.34 1009.59 1010.41 1009.82 1009.74 1009.48 1010.27 1011.62 1012.26 1012.67 1012.65 1012.95 1013.19 1013.24 1013.52 1013.76 1014.50 1015.67 1015.95 1017.40 1017.44 1017.85 1018.34 1019.15 1019.55 1019.87
1015.74 1015.57 1015.30 1014.99 1014.73 1014.47 1014.26 1013.92 1013.50 1013.27 1013.13 1013.01 1013.01 1012.86 1011.83 1009.13 1007.94 1008.39 1008.65 1009.09 1009.19 1009.63 1009.74 1009.42 1009.33 1010.49 1011.71 1012.86 1013.31 1013.11 1013.53 1013.85 1013.70 1013.34 1013.95 1014.59 1015.88 1016.49 1017.25 1017.88 1018.56 1018.85 1019.34 1019.90 1020.08
1015.58 1015.44 1015.19 1014.84 1014.52 1014.22 1013.90 1013.53 1013.25 1013.12 1012.95 1012.76 1012.83 1012.59 1010.63 1008.30 1008.20 1008.47 1008.56 1008.75 1008.96 1009.00 1009.05 1008.84 1009.13 1010.64 1011.93 1012.71 1013.41 1014.06 1014.39 1014.40 1013.18 1013.84 1014.06 1014.20 1015.87 1016.99 1017.21 1017.51 1018.00 1018.85 1019.08 1019.58 1020.17
1015.48 1015.27 1015.00 1014.66 1014.34 1013.90 1013.49 1013.13 1012.82 1012.77 1012.75 1012.70 1012.69 1012.06 1009.82 1008.54 1008.32 1007.78 1008.04 1008.08 1008.22 1008.65 1008.81 1008.90 1009.30 1011.18 1012.31 1012.94 1014.02 1014.29 1014.35 1013.76 1013.36 1013.37 1013.92 1014.55 1015.98 1016.80 1017.20 1017.25 1017.57 1017.98 1018.67 1019.05 1019.62
1015.31 1015.03 1014.78 1014.40 1014.13 1013.71 1013.15 1012.77 1012.58 1012.61 1012.64 1012.49 1011.86 1011.57 1009.18 1008.00 1007.33 1007.40 1007.57 1007.91 1008.20 1008.45 1008.93 1009.34 1010.25 1011.36 1012.49 1012.91 1013.16 1013.46 1013.78 1013.49 1013.22 1013.54 1014.09 1014.74 1015.66 1016.59 1017.31 1017.44 1017.43 1017.70 1018.32 1018.59 1018.77
1015.14 1014.85 1014.55 1014.21 1013.90 1013.67 1012.80 1012.75 1013.05 1012.62 1012.03 1010.73 1010.09 1009.43 1008.22 1007.36 1006.76 1006.85 1007.10 1007.79 1008.17 1008.47 1008.84 1009.30 1010.37 1011.05 1010.91 1011.20 1011.20 1011.81 1012.46 1012.85 1012.44 1012.77 1013.54 1014.60 1015.51 1016.06 1016.69 1017.33 1017.54 1017.31 1017.46 1018.01 1018.44
1014.96 1014.66 1014.35 1014.05 1013.78 1013.68 1013.67 1012.64 1011.54 1011.21 1010.58 1009.37 1008.80 1008.63 1007.93 1007.54 1007.22 1006.55 1006.76 1007.67 1008.00 1008.50 1008.94 1009.62 1009.92 1009.37 1009.82 1010.00 1010.53 1010.95 1011.74 1011.95 1012.04 1012.42 1013.42 1014.71 1015.68 1016.37 1016.49 1016.42 1016.87 1017.45 1017.70 1017.81 1018.05
1014.74 1014.45 1014.12 1013.86 1013.57 1013.51 1013.01 1011.44 1010.19 1010.38 1010.49 1008.57 1007.96 1007.59 1007.33 1007.40 1006.99 1006.49 1006.88 1007.20 1007.83 1008.43 1008.97 1009.43 1008.79 1008.45 1009.08 1009.20 1009.90 1009.99 1010.72 1011.16 1011.80 1012.79 1013.90 1014.90 1016.20 1016.52 1016.76 1016.85 1016.73 1016.93 1016.77 1017.17 1017.56
1014.52 1014.25 1013.89 1013.50 1013.74 1012.83 1011.68 1010.25 1010.05 1010.22 1010.37 1008.57 1007.40 1006.25 1006.54 1006.69 1006.69 1006.01 1006.22 1006.98 1007.78 1008.07 1008.67 1008.98 1007.96 1008.24 1008.28 1008.56 1008.95 1009.63 1009.71 1010.31 1011.44 1013.08 1014.19 1014.63 1016.33 1016.53 1016.48 1016.74 1016.61 1016.52 1016.35 1016.62 1016.88
1014.31 1014.07 1013.80 1013.59 1013.45 1012.21 1010.24 1009.92 1009.76 1009.93 1009.95 1008.06 1006.76 1005.26 1005.86 1006.42 1006.21 1005.66 1005.56 1006.40 1007.09 1007.58 1008.38 1007.90 1007.85 1007.87 1007.98 1007.78 1008.21 1008.78 1009.20 1010.32 1011.07 1012.56 1013.93 1015.37 1016.46 1016.15 1016.45 1016.64 1016.45 1016.20 1015.91 1016.18 1016.35
1014.04 1013.83 1013.70 1013.67 1013.47 1010.55 1009.67 1009.72 1009.88 1010.56 1009.83 1008.18 1007.19 1006.81 1006.87 1006.61 1006.40 1005.83 1005.95 1006.26 1006.62 1007.58 1008.17 1008.01 1007.47 1007.45 1007.19 1007.25 1007.85 1008.53 1009.45 1010.58 1011.86 1012.91 1014.49 1015.35 1016.21 1016.04 1016.49 1016.09 1016.17 1015.98 1016.37 1016.24 1016.49
1013.53 1013.47 1013.56 1012.92 1011.38 1010.00 1009.68 1009.93 1011.00 1011.08 1009.92 1008.98 1007.94 1007.56 1007.66 1007.64 1006.88 1006.57 1006.52 1007.04 1007.71 1008.43 1008.64 1008.20 1007.69 1007.22 1006.97 1007.52 1008.05 1009.09 1010.13 1011.51 1012.76 1014.09 1015.17 1015.47 1015.95 1015.54 1015.60 1015.41 1015.36 1015.89 1016.41 1016.46 1016.68
1012.75 1012.72 1012.52 1011.53 1010.40 1010.14 1010.10 1010.82 1011.37 1010.76 1009.94 1009.01 1008.69 1008.55 1008.55 1008.75 1007.89 1007.19 1007.42 1008.27 1008.32 1008.63 1009.05 1009.03 1008.22 1007.66 1007.10 1007.38 1007.98 1008.93 1010.17 1011.92 1013.21 1014.81 1015.28 1015.61 1015.88 1015.37 1015.25 1015.13 1015.29 1015.72 1016.19 1016.73 1017.01
1012.00 1012.12 1012.12 1009.89 1010.23 1010.80 1011.01 1011.67 1011.51 1010.70 1010.01 1009.65 1009.46 1009.78 1009.72 1009.45 1009.75 1008.79 1008.62 1008.84 1008.75 1008.48 1008.95 1009.31 1008.66 1007.80 1007.27 1007.22 1008.09 1009.16 1010.47 1011.18 1012.74 1014.63 1015.54 1016.09 1016.12 1015.35 1015.37 1015.52 1015.69 1016.07 1016.54 1016.92 1016.99
1012.22 1011.80 1010.65 1009.17 1009.50 1010.11 1011.37 1012.06 1011.35 1010.49 1010.00 1009.93 1010.53 1010.95 1011.00 1010.26 1010.02 1009.85 1009.49 1009.11 1008.83 1008.44 1008.22 1009.09 1009.11 1008.33 1007.61 1007.53 1008.28 1008.93 1010.20 1011.50 1013.04 1014.77 1015.78 1016.38 1016.48 1015.80 1015.63 1015.66 1015.88 1016.37 1016.67 1016.73 1016.94
1012.19 1011.50 1009.62 1009.26 1009.22 1010.83 1012.05 1011.81 1010.89 1010.16 1009.79 1010.16 1010.76 1011.07 1010.94 1010.51 1010.69 1010.73 1009.78 1009.36 1009.17 1009.13 1009.04 1009.23 1009.53 1009.32 1008.45 1008.95 1009.21 1009.52 1010.50 1011.99 1013.31 1014.69 1015.78 1016.51 1016.19 1014.80 1014.94 1015.19 1015.47 1016.11 1016.47 1016.54 1016.78
1012.29 1011.60 1009.61 1009.71 1010.57 1011.96 1012.06 1011.15 1010.11 1009.88 1009.83 1010.04 1010.52 1011.38 1011.89 1011.08 1010.91 1011.01 1010.57 1009.87 1009.53 1009.82 1010.12 1010.23 1010.37 1010.59 1010.05 1009.47 1009.57 1009.86 1010.69 1011.96 1013.67 1014.95 1015.82 1016.09 1015.17 1014.46 1014.46 1014.62 1015.15 1015.79 1015.99 1016.27 1016.54
1012.86 1011.84 1009.94 1009.84 1011.21 1012.23 1011.65 1010.82 1010.08 1009.76 1009.85 1010.09 1010.43 1011.25 1012.06 1012.07 1011.38 1010.83 1010.47 1009.88 1009.58 1010.03 1010.39 1010.53 1011.17 1011.48 1011.00 1010.59 1010.15 1010.57 1011.03 1011.82 1013.18 1014.27 1015.23 1015.86 1014.94 1014.42 1014.47 1014.80 1015.14 1015.65 1016.02 1016.53 1016.75
1013.06 1012.35 1011.41 1011.20 1011.79 1011.98 1011.84 1011.04 1010.32 1009.57 1009.73 1010.00 1010.44 1011.07 1011.70 1011.90 1011.54 1011.06 1010.53 1010.12 1009.91 1009.68 1010.38 1010.91 1011.94 1012.33 1012.39 1012.03 1011.81 1011.62 1011.33 1011.93 1012.92 1014.27 1014.75 1014.88 1014.57 1014.84 1014.99 1015.21 1015.53 1015.92 1016.35 1016.93 1017.33
1013.22 1013.18 1012.32 1012.53 1012.44 1012.46 1011.97 1011.37 1010.85 1010.49 1010.35 1010.55 1011.14 1011.54 1011.76 1011.89 1011.56 1010.94 1010.31 1010.22 1010.35 1010.61 1011.12 1011.81 1012.79 1012.73 1012.47 1012.23 1012.08 1011.90 1011.74 1012.01 1012.88 1013.50 1014.24 1014.25 1014.44 1014.38 1014.60 1015.12 1015.46 1015.79 1016.44 1017.09 1017.73
1013.53 1013.18 1012.69 1013.02 1013.05 1012.94 1012.81 1012.11 1011.48 1011.15 1010.92 1010.77 1010.81 1011.24 1011.23 1011.90 1011.92 1012.10 1010.75 1010.67 1010.62 1011.07 1011.60 1012.43 1013.05 1013.15 1012.93 1012.41 1012.35 1012.48 1012.56 1012.69 1013.19 1013.60 1013.91 1014.24 1014.32 1013.95 1014.29 1015.10 1015.87 1016.16 1016.94 1017.79 1018.19
1013.48 1012.83 1012.77 1013.64 1013.61 1013.53 1013.12 1012.63 1012.07 1011.64 1011.06 1010.57 1010.47 1010.60 1010.39 1011.12 1011.18 1010.57 1010.50 1010.48 1010.66 1011.35 1012.37 1013.00 1013.59 1014.14 1013.82 1013.16 1012.82 1013.22 1013.49 1013.32 1013.48 1013.85 1014.27 1014.51 1014.43 1014.46 1015.13 1015.83 1016.40 1016.97 1017.38 1018.10 1018.71
Wind_Speed
11 12 12 11 11 10 9 8 8 7 7 7 7 7 7 8 7 2 6 11 5 12 7 7 2 3 1 3 4 4 4 0 2 2 3 6 6 2 5 8 2 2 5 6 14
11 11 11 11 11 10 9 9 8 8 7 7 7 7 7 7 1 5 11 6 9 13 6 7 4 7 1 2 1 4 4 4 3 3 5 6 4 8 5 3 3 3 6 15 15
12 12 11 11 10 11 10 9 9 9 8 7 7 8 7 5 1 8 4 11 14 9 3 4 4 5 3 1 2 3 4 2 3 8 9 6 4 4 11 4 7 11 9 15 13
12 13 12 10 10 9 9 9 9 8 8 7 8 8 7 2 5 2 5 15 18 5 4 3 4 4 4 4 3 4 1 4 3 3 6 8 5 4 1 3 9 6 10 8 12
12 13 12 11 10 10 10 10 10 9 8 8 7 7 2 1 8 5 15 17 13 5 7 7 6 5 6 6 4 4 2 1 3 5 5 7 4 5 4 10 13 10 7 8 7
12 13 13 12 12 11 11 10 10 10 9 8 6 5 1 2 2 9 12 8 8 7 5 6 8 4 7 4 1 7 7 2 4 2 3 8 4 4 2 10 12 11 8 8 9
11 13 13 13 12 12 12 11 11 10 9 7 4 3 1 8 1 7 9 6 7 6 7 6 2 6 3 5 4 2 3 4 5 7 6 9 1 3 10 8 6 8 8 6 8
12 14 12 13 13 13 14 13 12 11 9 4 3 2 6 1 5 4 4 3 6 6 3 5 8 8 3 6 5 5 3 4 6 8 6 6 3 6 11 14 12 8 7 6 6
14 14 13 13 13 14 15 15 14 8 5 5 2 1 7 1 3 6 5 4 4 5 6 3 6 5 2 5 4 3 4 2 4 9 7 6 5 13 9 13 12 10 7 7 7
14 14 13 13 13 15 19 7 5 2 2 4 3 2 3 6 4 5 6 2 3 4 4 5 4 4 3 3 6 6 4 5 7 6 1 5 5 16 12 9 12 10 7 8 9
13 14 13 13 13 13 10 2 3 1 1 7 5 4 4 6 2 3 4 6 3 3 2 2 4 4 12 11 2 6 5 4 2 6 7 7 10 17 16 11 8 10 12 10 13
14 14 13 13 12 12 3 3 1 2 8 9 9 5 4 1 4 7 6 4 5 5 2 6 4 11 4 4 7 7 5 8 4 3 4 6 4 10 13 11 11 10 9 11 10
12 13 13 12 12 2 1 5 3 4 1 8 5 6 6 8 7 10 8 3 5 4 5 6 12 3 3 4 9 3 6 6 7 5 4 7 1 3 5 5 5 8 10 7 12
12 13 13 15 2 2 4 3 7 6 5 7 4 5 5 5 5 6 9 8 2 9 5 6 7 1 4 6 5 5 9 6 7 6 4 3 4 5 6 7 6 6 9 10 10
12 11 10 7 3 2 2 5 2 4 4 6 4 1 4 9 4 7 5 4 12 9 5 13 4 1 1 6 7 10 7 3 3 3 5 0 2 4 3 5 6 6 4 7 8
12 11 8 2 1 8 8 7 4 8 2 6 4 3 2 2 4 2 3 3 3 4 3 10 2 4 7 3 3 2 1 2 3 3 4 3 5 4 5 6 4 2 3 6 6
13 10 3 3 4 5 5 5 7 4 4 5 3 4 2 4 5 6 6 2 4 2 5 6 6 5 2 2 2 2 6 4 5 5 6 2 1 6 5 5 8 8 8 7 7
19 12 6 6 3 6 4 8 3 4 6 2 3 3 5 8 6 3 4 4 5 4 2 3 7 3 2 5 6 1 6 7 6 4 4 3 4 4 4 5 5 6 6 4 7
14 1 2 5 9 1 7 5 7 5 3 4 2 5 4 2 1 4 3 5 5 3 7 2 4 4 1 2 4 1 4 4 5 2 2 2 5 5 1 3 5 5 6 7 5
2 3 4 3 8 6 7 4 4 3 3 5 3 2 3 5 6 5 3 1 4 5 1 8 3 3 5 7 3 3 3 2 3 2 5 2 4 6 7 9 5 7 9 8 6
2 4 4 4 2 8 4 6 4 2 2 3 5 4 5 3 4 4 2 2 3 3 4 2 3 5 4 1 4 5 3 5 5 3 3 2 7 6 9 11 10 9 8 8 8
1 4 4 3 6 2 3 6 4 3 1 1 2 2 3 2 3 2 3 5 3 3 3 3 5 1 5 4 4 3 2 4 5 3 1 3 8 2 9 8 10 9 9 7 6
2 2 3 4 3 1 4 4 4 5 5 4 1 5 2 5 2 4 2 6 1 3 1 1 3 4 9 7 7 3 3 3 4 3 4 4 8 1 3 7 7 9 7 5 4
3 4 4 5 2 4 3 3 4 5 3 4 5 2 1 4 4 2 3 1 3 4 6 3 3 5 5 6 3 6 6 2 5 3 3 6 3 4 6 7 6 5 3 4 5
3 1 2 3 4 2 1 2 0 1 2 4 3 6 3 7 9 4 2 1 2 2 3 5 1 2 4 7 5 8 5 2 2 3 3 6 5 5 12 10 8 6 3 5 6
3 3 4 2 2 4 5 3 1 1 1 2 7 7 5 4 6 14 3 1 4 3 3 2 2 3 5 4 5 3 10 7 6 3 3 0 5 3 3 5 2 4 6 6 7
2 2 4 4 2 0 2 1 2 2 1 3 6 5 6 5 6 11 4 1 2 6 4 3 2 3 4 7 7 4 5 2 1 1 3 4 5 1 6 5 2 6 8 8 6
Wind_Direction
355 352 344 342 341 337 334 329 323 319 307 305 305 309 310 315 306 128 231 217 178 155 116 119 140 158 176 219 165 121 72 296 280 241 156 146 120 28 38 127 52 249 151 170 150
353 352 345 342 339 335 329 323 317 316 315 313 313 311 314 325 263 233 246 176 121 159 112 144 153 150 197 235 55 81 99 222 239 301 169 170 138 140 111 147 34 49 79 121 140
349 348 346 344 339 334 329 325 320 315 313 314 316 313 312 315 150 240 229 167 143 175 131 163 151 169 121 115 134 164 158 114 233 288 175 154 127 123 133 211 191 172 140 137 141
347 350 344 341 338 331 323 316 309 306 305 313 315 307 310 217 139 243 56 122 139 145 145 167 196 159 128 169 124 118 169 175 253 38 125 162 125 90 299 265 117 133 128 125 145
341 346 345 339 338 328 321 315 309 304 305 304 304 301 265 175 253 108 103 123 127 138 199 206 158 157 160 176 127 127 265 105 223 260 131 111 82 124 61 81 98 99 98 127 130
337 346 343 337 334 326 318 307 300 297 299 297 293 292 239 248 166 142 123 140 141 148 229 200 215 163 99 169 185 158 185 138 344 166 110 110 152 78 103 111 118 126 142 146 150
339 346 341 336 332 325 318 304 297 295 299 291 266 249 95 238 80 152 147 173 166 165 187 223 176 81 115 95 326 52 88 352 257 186 160 121 9 115 149 108 132 159 167 173 190
340 342 339 335 329 323 313 301 292 294 295 253 195 244 247 343 123 132 155 193 184 220 284 359 108 98 85 141 36 38 47 198 188 176 176 136 200 153 148 151 163 191 181 191 224
339 338 338 335 329 320 311 303 286 276 295 141 134 189 272 335 171 214 170 210 162 177 194 119 69 109 111 88 26 41 261 258 311 202 148 185 137 169 170 179 181 183 196 186 221
335 338 337 335 331 324 317 275 138 133 170 209 255 359 271 232 212 186 200 163 255 317 113 142 74 111 52 111 251 206 228 255 235 169 118 167 134 170 184 189 207 190 201 207 218
335 337 336 333 331 333 348 112 29 4 244 196 194 225 269 266 286 227 159 137 174 87 270 55 69 264 243 213 215 186 186 246 238 189 156 195 155 184 183 196 217 213 210 201 225
336 336 335 330 328 326 312 95 146 227 310 223 241 264 292 34 325 276 123 160 146 229 86 8 281 250 269 203 203 140 221 236 268 211 128 150 170 196 193 203 211 218 223 227 233
323 333 333 328 324 324 154 231 226 1 253 298 193 194 198 157 221 263 155 194 197 223 200 185 245 299 224 189 186 205 186 249 214 107 36 115 281 217 224 233 245 218 224 216 232
321 333 334 325 330 285 261 189 254 177 64 280 241 256 155 149 278 220 198 160 259 222 199 219 265 212 284 224 151 185 223 229 171 131 227 164 251 233 194 239 243 232 232 221 218
314 323 332 354 277 193 200 320 38 67 45 308 300 324 135 159 185 251 172 97 230 235 109 257 268 95 139 219 164 231 174 226 321 186 103 101 85 258 130 238 250 271 217 176 200
311 327 332 130 251 250 308 339 67 44 308 339 341 16 39 277 236 263 177 124 217 232 181 243 220 208 229 215 189 50 128 71 84 86 14 199 168 251 185 195 193 221 222 165 158
314 318 279 314 233 312 308 51 46 111 314 279 302 37 43 317 289 191 176 177 190 175 286 337 310 284 127 234 133 103 59 341 346 358 228 208 137 247 223 219 177 180 184 179 175
316 303 214 227 295 350 51 54 109 247 249 324 334 315 87 15 302 301 94 115 15 141 149 275 313 1 274 228 225 123 155 154 235 223 266 330 260 272 277 201 173 176 180 167 167
317 128 206 253 200 71 71 71 205 212 323 349 27 17 338 67 49 350 32 143 199 202 139 130 262 301 105 253 116 260 240 213 125 58 76 286 307 306 190 238 170 181 158 189 191
26 8 275 146 168 74 73 226 236 238 350 53 44 122 270 336 35 9 14 215 217 237 268 205 203 248 339 31 6 191 162 291 22 257 269 265 273 239 230 230 210 179 189 200 202
44 49 267 192 108 53 140 227 270 212 168 115 197 255 244 163 126 298 256 326 348 289 296 119 107 288 58 31 248 333 326 49 110 122 187 265 259 209 222 208 190 191 197 191 184
48 62 318 74 64 19 165 203 227 183 167 119 114 119 303 166 133 228 282 211 32 360 319 320 134 354 225 260 279 216 207 133 124 250 227 164 269 268 240 184 163 187 197 200 180
73 247 346 73 122 268 275 257 233 182 188 189 3 97 104 281 166 195 193 282 255 58 165 285 14 20 339 356 3 13 269 133 105 79 201 150 266 322 133 149 174 179 200 188 187
82 44 359 57 124 141 233 291 276 34 120 157 149 106 110 209 277 199 245 211 313 92 63 77 102 153 208 232 210 305 295 132 137 120 214 231 259 248 230 204 200 206 204 224 207
38 313 200 357 350 346 252 173 279 205 22 57 74 75 3 9 353 290 293 307 99 17 73 86 28 197 250 254 267 287 308 225 77 211 169 293 226 244 220 207 209 203 146 126 101
88 70 10 65 319 357 352 25 36 196 187 238 139 168 151 103 189 275 200 194 241 24 87 54 289 34 299 330 330 88 20 47 63 39 44 91 272 263 138 120 154 188 134 107 102
314 333 105 311 4 71 252 281 293 212 232 213 200 135 109 162 297 282 218 235 151 157 149 126 105 53 283 340 327 12 344 8 101 98 277 273 278 30 55 78 67 85 105 113 127